[[{"header":{"parameterUnit":"m.s-1","parameterCategory":1,"la1":30.2991,"la2":30.254,"lo1":-89.0895,"lo2":-89.0444,"dy":0.0017,"dx":0.0017,"nx":28,"ny":28,"refTime":"2024-06-06T21:00:00:Z","depth":0,"parameterNumber":2,"parameterNumberName":"U-component_of_WINDS"},"data":[0,0,0,0,0,0,0,0,0,0,0,0,0,0,0,0,0,0,0,0,0,0,0,0,0,0,0,0,0,0,0,0,0,0,0,0,0,0,0,0,0,0,0,0,0,0,0,0,0,0,0,0,0,0,0,0,0,0,-0.5644,-0.5643,0,-0.5547,-0.5546,-0.5545,-0.553,-0.553,-0.5531,-0.5532,-0.5428,-0.5424,-0.5421,0,0,0,0,0,0,0,0,0,0,0,0,0,-0.5813,-0.581,-0.5644,-0.5643,-0.5642,-0.5547,-0.5546,-0.5544,-0.5529,-0.5531,-0.5532,-0.5533,-0.5429,-0.5425,-0.542,0,0,0,0,0,0,0,0,0,0,0,0,0,-0.573,-0.5809,-0.5644,-0.5623,-0.562,-0.5547,-0.5546,-0.5544,-0.5529,-0.5531,-0.5532,-0.5533,-0.543,-0.5425,-0.542,-0.536,0,0,-0.5403,-0.5401,0,0,0,0,0,0,0,0,-0.5735,-0.5724,-0.5627,-0.5624,-0.5621,-0.5552,-0.5567,-0.5482,-0.5529,-0.5564,-0.5532,-0.5534,-0.5468,-0.5459,-0.5438,-0.5355,-0.5351,-0.5403,-0.5399,-0.5397,-0.5396,0,0,0,0,0,0,0,-0.574,-0.5728,-0.5605,-0.5626,-0.5622,-0.5617,-0.5607,-0.5551,-0.5509,-0.5561,-0.5559,-0.5548,-0.5466,-0.5443,-0.5435,-0.5349,-0.5403,-0.5398,-0.5395,-0.5393,-0.5212,-0.5211,0,0,0,0,0,0,-0.5751,-0.5733,-0.5609,-0.5603,-0.5682,-0.5613,-0.5601,-0.5573,-0.551,-0.5502,-0.5547,-0.5548,-0.5452,-0.5442,-0.5432,-0.5357,-0.5397,-0.5392,-0.5389,-0.5214,-0.5212,-0.521,0,0,0,0,0,0,-0.5754,-0.574,-0.5612,-0.5667,-0.5651,-0.5609,-0.5576,-0.557,-0.5547,-0.55,-0.5492,-0.5532,-0.5452,-0.5439,-0.5378,-0.5353,-0.539,-0.5385,-0.5216,-0.5213,-0.5211,-0.5208,0,0,0,0,0,0,-0.5759,-0.5741,-0.5719,-0.5667,-0.5648,-0.5562,-0.5575,-0.5567,-0.5538,-0.5538,-0.5483,-0.5475,-0.5452,-0.5386,-0.5373,-0.5347,-0.538,-0.5218,-0.5214,-0.5212,-0.521,-0.5206,-0.5203,0,0,0,0,0,-0.5765,-0.5721,-0.5718,-0.5703,-0.5619,-0.5561,-0.5549,-0.5526,-0.5537,-0.5513,-0.5483,-0.5477,-0.5359,-0.538,-0.5365,-0.5337,-0.5219,-0.5215,-0.5212,-0.5212,-0.5207,-0.5203,0,0,0,0,0,0,-0.5769,-0.5713,-0.5709,-0.5647,-0.5609,-0.5558,-0.5528,-0.5521,-0.5477,-0.5479,-0.545,-0.5437,-0.5378,-0.5351,-0.5376,-0.5276,-0.529,-0.5283,-0.5295,-0.529,-0.5286,-0.5293,-0.5376,0,0,0,0,0,-0.5763,-0.5721,-0.5674,-0.5624,-0.5605,-0.557,-0.5543,-0.5529,-0.5487,-0.547,-0.5435,-0.5394,-0.5348,-0.5317,-0.5272,-0.5207,-0.5194,-0.518,-0.5176,-0.5173,-0.5167,-0.5131,-0.5124,-0.5199,-0.5199,-0.5199,0,0,-0.5748,-0.5713,-0.5688,-0.5624,-0.5592,-0.5548,-0.5556,-0.5509,-0.5476,-0.5462,-0.5403,-0.5376,-0.5328,-0.5265,-0.5235,-0.5241,-0.5144,-0.5169,-0.5167,-0.5162,-0.5126,-0.5119,-0.5113,-0.5196,-0.5197,-0.5197,0,0,-0.5701,-0.567,-0.5625,-0.5594,-0.5547,-0.5524,-0.5514,-0.5464,-0.5446,-0.5387,-0.5376,-0.5335,-0.5256,-0.5222,-0.5195,-0.5136,-0.5128,-0.5122,-0.5101,-0.5066,-0.506,-0.5054,-0.5032,-0.5025,-0.5116,-0.5116,-0.5116,0,-0.5689,-0.5624,-0.5602,-0.5556,-0.5527,-0.5516,-0.5469,-0.5439,-0.5379,-0.5359,-0.5367,-0.5268,-0.5234,-0.5163,-0.5149,-0.5128,-0.5113,-0.5127,-0.5063,-0.5057,-0.5051,-0.503,-0.5022,-0.5116,-0.5116,-0.5116,-0.5116,0,-0.5611,-0.5566,-0.5535,-0.5479,-0.5447,-0.5401,-0.5371,-0.5341,-0.533,-0.5306,-0.5246,-0.5206,-0.5152,-0.5135,-0.5122,-0.5061,-0.5066,-0.5069,-0.5082,-0.5044,-0.5024,-0.5016,-0.5115,-0.5115,-0.5115,-0.5116,0,0,-0.556,-0.5495,-0.5484,-0.5459,-0.5407,-0.5371,-0.5324,-0.5274,-0.5248,-0.5208,-0.5167,-0.5101,-0.5103,-0.5072,-0.5056,-0.5025,-0.4981,-0.5031,-0.503,-0.5022,-0.4911,-0.4909,-0.49,-0.4976,-0.4975,-0.4974,-0.4915,0,-0.5506,-0.5423,-0.5403,-0.5332,-0.529,-0.5279,-0.5238,-0.5201,-0.5178,-0.5138,-0.5111,-0.5065,-0.5072,-0.5053,-0.5023,-0.4993,-0.4958,-0.4997,-0.4936,-0.4935,-0.4948,-0.4889,-0.4886,-0.4832,-0.4907,-0.4905,-0.4904,0,-0.543,-0.539,-0.5315,-0.527,-0.5251,-0.5215,-0.5168,-0.513,-0.5088,-0.5073,-0.5039,-0.5027,-0.4976,-0.4994,-0.4924,-0.4951,-0.4925,-0.4907,-0.4904,-0.4896,-0.4916,-0.4878,-0.4815,-0.4806,-0.4892,-0.4893,-0.4894,0,-0.54,-0.5327,-0.5273,-0.5252,-0.5198,-0.5172,-0.5148,-0.5108,-0.5079,-0.5037,-0.5018,-0.497,-0.4944,-0.4907,-0.4881,-0.4896,-0.4813,-0.4828,-0.4798,-0.4798,-0.4779,-0.478,-0.4709,-0.4765,-0.4765,-0.4765,-0.4765,0,-0.534,-0.5294,-0.5259,-0.5225,-0.5174,-0.5151,-0.51,-0.5076,-0.504,-0.5001,-0.4988,-0.4952,-0.4921,-0.4879,-0.4859,-0.4804,-0.4792,-0.4778,-0.4772,-0.4778,-0.478,-0.4759,-0.4762,-0.4763,-0.4764,-0.4764,-0.4764,0,-0.5296,-0.5271,-0.5211,-0.5166,-0.5153,-0.5117,-0.5077,-0.5044,-0.5022,-0.4972,-0.4959,-0.4923,-0.4874,-0.4845,-0.4783,-0.4769,-0.4707,-0.4704,-0.4722,-0.4719,-0.469,-0.4693,-0.4603,-0.4589,-0.4655,-0.4655,-0.4654,0,-0.5259,-0.5224,-0.5176,-0.5149,-0.5125,-0.5083,-0.5054,-0.5031,-0.5001,-0.4951,-0.4924,-0.4874,-0.4833,-0.4755,-0.4722,-0.4675,-0.467,-0.4641,-0.4662,-0.4669,-0.4668,-0.467,-0.4666,-0.4637,-0.4637,-0.4636,-0.4636,0,-0.5195,-0.5185,-0.5145,-0.51,-0.5067,-0.503,-0.4994,-0.4972,-0.4943,-0.491,-0.486,-0.4829,-0.4767,-0.4717,-0.4667,-0.4641,-0.4633,-0.463,-0.462,-0.4625,-0.4636,-0.4629,-0.4711,-0.4632,-0.4632,-0.4632,-0.4633,-0.4633,-0.5153,-0.5122,-0.5083,-0.5038,-0.5009,-0.4976,-0.4942,-0.4917,-0.4876,-0.4824,-0.4812,-0.476,-0.4719,-0.4652,-0.4624,-0.4583,-0.4587,-0.4573,-0.4569,-0.4566,-0.4565,-0.4644,-0.4573,-0.4573,-0.4574,-0.4574,-0.4574,0,-0.5088,-0.5063,-0.5023,-0.4973,-0.4938,-0.4936,-0.4896,-0.4866,-0.4821,-0.4785,-0.4746,-0.4689,-0.4642,-0.4606,-0.4557,-0.4531,-0.4526,-0.4519,-0.4519,-0.4513,-0.4564,-0.4577,-0.4523,-0.4523,-0.4523,-0.4523,-0.4524,-0.4524,-0.505,-0.4997,-0.4982,-0.4914,-0.4888,-0.4839,-0.4816,-0.4785,-0.4756,-0.4694,-0.4655,-0.4633,-0.4596,-0.4545,-0.4501,-0.4492,-0.4474,-0.4467,-0.4457,-0.4505,-0.451,-0.4515,-0.4527,-0.4464,-0.4464,-0.441,-0.441,-0.4409]},{"header":{"parameterUnit":"m.s-1","parameterCategory":1,"la1":30.2991,"la2":30.254,"lo1":-89.0895,"lo2":-89.0444,"dy":0.0017,"dx":0.0017,"nx":28,"ny":28,"refTime":"2024-06-06T21:00:00:Z","depth":0,"parameterNumber":3,"parameterNumberName":"V-component_of_WINDS"},"data":[0,0,0,0,0,0,0,0,0,0,0,0,0,0,0,0,0,0,0,0,0,0,0,0,0,0,0,0,0,0,0,0,0,0,0,0,0,0,0,0,0,0,0,0,0,0,0,0,0,0,0,0,0,0,0,0,0,0,0.3466,0.3466,0,0.3422,0.3422,0.3421,0.3425,0.3425,0.3426,0.3427,0.3377,0.3375,0.3373,0,0,0,0,0,0,0,0,0,0,0,0,0,0.355,0.3548,0.3466,0.3466,0.3465,0.3422,0.3421,0.3421,0.3425,0.3425,0.3426,0.3427,0.3378,0.3376,0.3373,0,0,0,0,0,0,0,0,0,0,0,0,0,0.351,0.3548,0.3467,0.3462,0.3461,0.3422,0.3421,0.3421,0.3424,0.3426,0.3427,0.3428,0.3379,0.3376,0.3373,0.3334,0,0,0.3364,0.3363,0,0,0,0,0,0,0,0,0.3512,0.3507,0.3463,0.3462,0.3461,0.343,0.3433,0.3391,0.3424,0.3438,0.3427,0.3428,0.3394,0.339,0.3379,0.3332,0.333,0.3364,0.3362,0.3361,0.336,0,0,0,0,0,0,0,0.3515,0.3509,0.3449,0.3463,0.3461,0.3461,0.3456,0.3425,0.3411,0.3437,0.3437,0.3432,0.3393,0.3382,0.3378,0.3329,0.3364,0.3361,0.3359,0.3358,0.3245,0.3244,0,0,0,0,0,0,0.352,0.3511,0.345,0.3447,0.349,0.3458,0.3453,0.3439,0.3411,0.3408,0.3431,0.3433,0.3386,0.3381,0.3376,0.3327,0.3361,0.3358,0.3356,0.3246,0.3245,0.3243,0,0,0,0,0,0,0.3521,0.3514,0.3452,0.3479,0.3471,0.3456,0.344,0.3438,0.3426,0.3407,0.3404,0.3422,0.3387,0.338,0.3344,0.3325,0.3356,0.3354,0.3248,0.3246,0.3244,0.323,0,0,0,0,0,0,0.3524,0.3515,0.3501,0.3479,0.347,0.3422,0.3439,0.3436,0.3421,0.3423,0.3398,0.3394,0.3387,0.3349,0.3341,0.3322,0.3352,0.3249,0.3247,0.3245,0.3232,0.3228,0.3224,0,0,0,0,0,0.3527,0.3498,0.35,0.3493,0.3453,0.3421,0.3416,0.3409,0.342,0.3405,0.3392,0.3395,0.3329,0.3345,0.3337,0.3316,0.325,0.3248,0.3245,0.3234,0.3229,0.3224,0,0,0,0,0,0,0.3518,0.3496,0.3497,0.3462,0.3443,0.3422,0.3403,0.3405,0.3382,0.3384,0.3375,0.337,0.3333,0.3321,0.3339,0.3276,0.3291,0.3286,0.3285,0.328,0.3276,0.3279,0.3349,0,0,0,0,0,0.3512,0.349,0.3471,0.3441,0.3432,0.3419,0.3405,0.3402,0.3382,0.3374,0.3359,0.3338,0.3312,0.3296,0.3271,0.323,0.3224,0.3212,0.3208,0.3205,0.3201,0.3176,0.317,0.3234,0.3234,0.3234,0,0,0.3499,0.3484,0.347,0.3439,0.3424,0.3399,0.3413,0.3386,0.3367,0.3369,0.3335,0.3323,0.3299,0.326,0.3242,0.3249,0.3182,0.3202,0.3199,0.3196,0.3172,0.3166,0.3161,0.3232,0.3233,0.3233,0,0,0.3462,0.345,0.3423,0.3408,0.3386,0.3378,0.3371,0.3349,0.3341,0.3307,0.3307,0.3283,0.324,0.3223,0.3208,0.3163,0.3164,0.3156,0.3135,0.3111,0.3106,0.3101,0.3083,0.3077,0.3152,0.3152,0.3152,0,0.3449,0.3413,0.3408,0.3381,0.3366,0.3368,0.3339,0.3325,0.3295,0.3284,0.3293,0.3237,0.3222,0.3177,0.3166,0.3155,0.3145,0.3158,0.3107,0.3102,0.3098,0.3081,0.3074,0.3151,0.3151,0.3151,0.3151,0,0.3396,0.3371,0.3352,0.3324,0.3307,0.3279,0.3268,0.3251,0.3249,0.3239,0.3202,0.3183,0.3154,0.3144,0.3141,0.3098,0.3103,0.3109,0.3124,0.3091,0.3075,0.3068,0.3149,0.315,0.315,0.315,0,0,0.3353,0.3323,0.3315,0.3302,0.3277,0.3257,0.3228,0.3201,0.3185,0.3165,0.3139,0.3102,0.3107,0.3091,0.3086,0.3065,0.3028,0.3074,0.3073,0.3064,0.2977,0.2971,0.2964,0.3029,0.3028,0.3027,0.2979,0,0.3313,0.3264,0.3258,0.3213,0.3188,0.3189,0.3164,0.3145,0.3135,0.3111,0.3099,0.3072,0.3082,0.3072,0.3051,0.3037,0.301,0.3041,0.3003,0.3001,0.3007,0.2956,0.295,0.2906,0.2972,0.2971,0.2971,0,0.3259,0.3238,0.3191,0.3168,0.3158,0.3135,0.3108,0.3087,0.3064,0.3058,0.3039,0.3036,0.3004,0.3021,0.2976,0.2997,0.2981,0.2971,0.2969,0.2964,0.2983,0.2948,0.2892,0.2884,0.2961,0.2962,0.2962,0,0.323,0.3189,0.3156,0.3144,0.3118,0.3101,0.3089,0.3068,0.3051,0.3027,0.3016,0.2988,0.2973,0.295,0.2939,0.2953,0.2894,0.291,0.2886,0.2886,0.2872,0.2873,0.2811,0.2865,0.2865,0.2865,0.2865,0,0.3185,0.3156,0.3142,0.3121,0.3088,0.308,0.3047,0.3035,0.3016,0.2991,0.299,0.2966,0.2954,0.2928,0.2919,0.2882,0.2875,0.2867,0.2865,0.2867,0.2867,0.2855,0.2857,0.2863,0.2864,0.2864,0.2864,0,0.3146,0.3136,0.3099,0.3077,0.307,0.3046,0.3026,0.3005,0.2994,0.2963,0.2955,0.2938,0.2907,0.2894,0.2856,0.285,0.2807,0.2807,0.2814,0.2813,0.2789,0.2791,0.2715,0.2704,0.2767,0.2766,0.2766,0,0.3118,0.3095,0.307,0.3054,0.3042,0.3016,0.2998,0.299,0.2972,0.2944,0.2925,0.2894,0.2869,0.282,0.2803,0.2773,0.2772,0.2748,0.2767,0.2769,0.2769,0.277,0.2767,0.2744,0.2743,0.2742,0.2742,0,0.3067,0.3063,0.3039,0.3013,0.2992,0.2971,0.295,0.2936,0.2924,0.2903,0.2872,0.2853,0.2814,0.2783,0.2752,0.2737,0.2736,0.2736,0.2728,0.2729,0.2733,0.2729,0.2803,0.2738,0.2738,0.2738,0.2739,0.2739,0.3031,0.301,0.2989,0.2962,0.2945,0.2926,0.2904,0.2891,0.2865,0.2834,0.283,0.2796,0.2772,0.273,0.2714,0.2686,0.2692,0.2682,0.2679,0.2676,0.2673,0.2739,0.2681,0.2681,0.2681,0.2681,0.2681,0,0.2979,0.2965,0.294,0.2911,0.2889,0.2892,0.2868,0.2849,0.282,0.2798,0.2774,0.2737,0.2706,0.2687,0.2655,0.2636,0.2635,0.2628,0.2628,0.2625,0.2671,0.268,0.2629,0.2629,0.2629,0.263,0.263,0.263,0.2949,0.2913,0.2906,0.2862,0.2848,0.2816,0.2802,0.2782,0.2765,0.2724,0.2699,0.2687,0.2665,0.2632,0.2603,0.2598,0.2586,0.2578,0.2573,0.2616,0.2622,0.2627,0.2635,0.2576,0.2576,0.2529,0.2529,0.2528]}]]